Погода в Герасимове

Россия / Орловская область     52°47′58″N   35°06′32″E
темп.,
°C
ветер,
м/с
пор.,
м/с
влажн.,
%
обл.,
%
осадки,
мм/ч
давл.,
гПа
погр.,
м
26 октября, вт
вт2600:00−1юз37745 0.0 1032120
03:00−1юз497793 0.0 1032171
06:00−1юз4107993 0.0 1031199
09:00+1юз51270100 0.0 1030312
12:00+5юз71153100 0.0 1029534
15:00+6юз61252100 0.0 1027638
18:00+4ююз5136198 0.0 1026329
21:00+3ююз61564100 0.0 1026372
27 октября, ср
ср2700:00+3юз61567100 0.0 1025365
03:00+2ююз61471100 0.0 1024338
06:00+2ююз61577100 0.0 1022352
09:00+3юз71677100 0.0 1021495
12:00+7юз8126595 0.0 1020649
15:00+5зюз61182100 0.9 1019522
18:00+5зюз5118688 0.0 1020465
21:00+6зюз3883100 0.0 1020273
28 октября, чт
чт2800:00+4юз41090100 0.0 1020247
03:00+5юз51194100 0.0 1018299
06:00+6юз61494100 0.6 1016414
09:00+7зюз61494100 1.3 1016591
12:00+7зюз61295100 0.1 1016536
15:00+8з61296100 0.5 1016570
18:00+9зсз61293100 0.1 1017724
21:00+10сз5128566 0.1 1018523
29 октября, пт
пт2900:00+8ссз5108598 0.1 1021547
03:00+7ссв588793 0.1 1024415
06:00+6ссв3782100 0.1 1027383
09:00+7всв356799 0.1 1029877
12:00+8в33595 0.0 1030925
15:00+9вюв22575 0.0 1031860
18:00+6вюв34765 0.0 103246
21:00+4юв348229 0.0 103369
30 октября, сб
сб3000:00+3ю3785100 0.0 1034119
03:00+2ю378738 0.0 1034127
06:00+2ю488710 0.0 1034152
09:00+3ю498011 0.0 1034234
12:00+8ююз58625 0.0 1033445
15:00+10ююз595925 0.0 1032606
18:00+6ю4127067 0.0 1032253
21:00+5ююз513665 0.0 1032272